Regional Weather Roundup
Issued by NWS Boston, MA

Home | Current Version | Previous Version | Text Only | Print | Product List | Glossary On
Versions: 1 2 3 4 5 6 7 8 9 10 11 12 13 14 15 16 17 18 19 20 21 22 23 24 25 26 27 28 29 30 31 32 33 34 35 36 37 38 39 40 41 42 43 44 45 46 47 48 49 50
097
ASUS41 KBOX 261610
RWRBOX

REGIONAL WEATHER ROUNDUP
NATIONAL WEATHER SERVICE TAUNTON MA
1200 PM EDT MON SEP 26 2016

NOTE:  "FAIR" INDICATES FEW OR NO CLOUDS BELOW 12,000 FEET WITH NO
SIGNIFICANT WEATHER AND/OR OBSTRUCTIONS TO VISIBILITY.

MAZALL-261700-
EASTERN MASSACHUSETTS

CITY           SKY/WX    TMP DP  RH WIND       PRES   REMARKS
BOSTON         MOSUNNY   61  40  45 SE8       30.19F
BEVERLY        SUNNY     62  39  42 W9        30.18F
LAWRENCE       SUNNY     61  39  44 SW7       30.20
BEDFORD        MOSUNNY   62  36  37 CALM      30.17F
BLUE HILL      NOT AVBL
NORWOOD        SUNNY     64  37  36 NW6       30.18F
MARSHFIELD     SUNNY     59  39  47 E8G15     30.19F
PLYMOUTH       SUNNY     61  35  37 W5        30.20F
TAUNTON        SUNNY     64  37  36 CALM      30.18F
NEW BEDFORD    SUNNY     64  38  38 CALM      30.18F
$$

MAZALL-261700-
CAPE COD AND THE ISLANDS

CITY           SKY/WX    TMP DP  RH WIND       PRES   REMARKS
FALMOUTH       SUNNY     63  39  42 SW8       30.21S
HYANNIS        SUNNY     62  42  47 NW8       30.19S
CHATHAM        SUNNY     63  40  42 VRB5      30.20F
PROVINCETOWN   SUNNY     61  40  45 N7        30.20
NANTUCKET      SUNNY     63  42  46 MISG      30.19F
MARTHAS VNYRD  SUNNY     63  40  42 W3        30.19F
$$

MAZALL-261700-
CENTRAL AND WESTERN MASSACHUSETTS

CITY           SKY/WX    TMP DP  RH WIND       PRES   REMARKS
WORCESTER      SUNNY     58  34  40 W7        30.18F
FITCHBURG      SUNNY     63  34  33 CALM      30.18F
ORANGE         SUNNY     59  36  42 SE8       30.18F
SPRINGFIELD    MOSUNNY   62  39  42 VRB5      30.17F
WESTFIELD      SUNNY     61  38  42 VRB6      30.18F
NORTH ADAMS    SUNNY     60  38  43 E5        30.15F
PITTSFIELD     SUNNY     60  39  45 S7        30.15
$$

RIZALL-261700-
RHODE ISLAND

CITY           SKY/WX    TMP DP  RH WIND       PRES   REMARKS
PROVIDENCE     MOSUNNY   63  37  38 CALM      30.20F
NEWPORT        SUNNY     62  40  44 SE3       30.19F
BLOCK ISLAND   SUNNY     62  47  57 VRB7      30.20
SMITHFIELD     SUNNY     62  38  40 NW8       30.19
WESTERLY       SUNNY     63  39  41 S8        30.20F
$$

CTZALL-261700-
CONNECTICUT

CITY           SKY/WX    TMP DP  RH WIND       PRES   REMARKS
BRADLEY INTL   PTSUNNY   61  39  44 S9        30.19F
HARTFORD       SUNNY     62  42  47 S5        30.18F
BRIDGEPORT     SUNNY     65  47  52 E9        30.18F
DANBURY        SUNNY     64  44  48 S7        30.18F
GROTON         SUNNY     64  45  49 SE7       30.19F
NEW HAVEN      MOSUNNY   64  45  49 E8        30.19F
CHESTER        FAIR      63  39  42 SE7       30.19F
MERIDEN        SUNNY     66  38  35 VRB5      30.18F
WILLIMANTIC    SUNNY     65  38  36 CALM      30.19F
OXFORD         MOSUNNY   63  37  39 S9        30.20F
$$

MEZ002-015-021-024-NHZ003-005-008-011-012-014-VTZ005-008-261700-
NORTHERN NEW ENGLAND

CITY           SKY/WX    TMP DP  RH WIND       PRES   REMARKS
PORTLAND ME    MOSUNNY   61  34  36 NW9       30.18F
BANGOR ME      MOSUNNY   59  38  45 CALM      30.14F
CONCORD NH     SUNNY     62  37  39 CALM      30.18F
MANCHESTER NH  MOSUNNY   61  37  41 S3        30.17F
NASHUA NH      SUNNY     61  40  45 VRB6      30.18
PORTSMOUTH NH  MOSUNNY   61  36  38 VRB2      30.17F
JAFFREY NH     SUNNY     58  33  39 S7        30.18F
KEENE NH       SUNNY     59  39  47 S6        30.18
BURLINGTON VT  PTSUNNY   62  34  35 S17       30.13
MT. WASHINGTON MOSUNNY   36  25  64 W3          N/A
$$

NYZ052-076-261700-
EASTERN NEW YORK

CITY           SKY/WX    TMP DP  RH WIND       PRES   REMARKS
ALBANY         PTSUNNY   61  39  44 S12G20    30.15F
NEW YORK CITY  PTSUNNY   71  47  42 S12G20    30.16F
$$

ANZALL-261700-
MARINE OBSERVATIONS

STATION/POSITION TIME  TEMP    WIND        PRES    VSBY  WAVE
                       AIR SEA DIR/SP/G                  HT/PER
                 (UTC) (F)     (DEG/KT/KT) (MB)    (MI)  (FT/S)
BOSTON BUOY      1550   57 64  260/  2/  4 1022.4F         1/ 5
BUZZARDS BAY     1500   59     310/  1/  2 1023.7F
NANTUCKET SOUND  1550   60 67  300/  6/  8 1022.4F         1/ 5
MASS BAY-STELLWA 1504   58 62   40/  4/  6 1022.4F  1 7/8  1/10
ISLE OF SHOALS   1600   57     160/  5/  6 1022.1F
S OF BLOCK IS    1525      67                N/A           2/11
$$

......................KEY.........................
  SKY/WX - SKY CONDITION/PRESENT WEATHER
  TMP    - TEMPERATURE IN FAHRENHEIT
  DWPT   - DEWPOINT IN FAHRENHEIT
  RH     - RELATIVE HUMIDITY IN PERCENT
  WIND   - DIRECTION AND SPEED IN MPH
  PRES   - MEAN SEA LEVEL PRESSURE IN INCHES OF HG
  WCI    - WIND CHILL INDEX
  VSB    - VISIBILITY IN MILES
  HX     - HEAT INDEX
  TC     - TEMPERATURE IN CELSIUS
  VRB    - VARIABLE WIND DIRECTION
  N/A    - NOT AVAILABLE




USA.gov is the U.S. government's official web portal to all federal, state and local government web resources and services.